Regional Weather Roundup
Issued by NWS

Home | Current Version | Previous Version | Text Only | Print | Product List | Glossary On
Versions: 1 2 3 4 5 6 7 8 9 10 11 12 13 14 15 16 17 18 19 20 21 22 23 24 25 26 27 28 29 30 31 32 33 34 35 36 37 38 39 40 41 42 43 44 45 46 47 48 49 50
000
ASHW40 PHFO 281310
RWRHI

WEATHER ROUNDUP FOR HAWAII
NATIONAL WEATHER SERVICE HONOLULU HI
300 AM HST FRI AUG 28 2015

THIS IS AN AUTOMATED REPORT THAT HAS NOT BEEN QUALITY CONTROLLED.

NOTE..."FAIR" INDICATES FEW OR NO CLOUDS BELOW 12,000 FEET WITH NO
SIGNIFICANT WEATHER AND/OR OBSTRUCTIONS TO VISIBILITY.

* - THESE SITES REPORT LIMITED FIELDS

HIZ001>004-281400-
KAUAI-NIIHAU-

CITY           SKY/WX    TMP DP  RH WIND       PRES   REMARKS
LIHUE APT      LGT RAIN  76  32  20 W10       29.89F
PORT ALLEN*    NOT AVBL
POIPU*           N/A     77 N/A N/A N6G12       N/A
PRINCEVILLE*     N/A     75 N/A N/A MISG        N/A
KOKOLE POINT*  NOT AVBL
MOLOAA DAIRY*    N/A     75  75 100 SW2         N/A
WAIMEA HTS*    NOT AVBL
PUU OPAE*      NOT AVBL
PUU LUA*       NOT AVBL
MAKAHA RIDGE*  NOT AVBL
$$

HIZ005>011-281400-
OAHU-

CITY           SKY/WX    TMP DP  RH WIND       PRES   REMARKS
HONOLULU       MOCLDY    79  76  91 NW5       29.86F
KALAELOA       CLOUDY    78  73  84 CALM      29.88F
KANEOHE MCB    MOCLDY    80  75  84 CALM      29.84F
WHEELER FIELD  FAIR      74  73  97 CALM      29.88F
BELLOWS*       NOT AVBL
KAHUKU*        NOT AVBL
WHEELER*       NOT AVBL
WAIANAE HARBOR NOT AVBL
DILLINGHAM*      N/A     75  72  88 MISG        N/A
KAHUKU TRN*      N/A     88  84  89 SE3         N/A  HX 112
KAWAILOA*        N/A     73  70  88 E2          N/A
KII*             N/A     79  75  89 SE1G7       N/A
MAKUA RANGE*   NOT AVBL
OAHU FOREST NW NOT AVBL
SCHOFIELD BRK*   N/A     72  70  94 SE1         N/A
SCHOFIELD S*   NOT AVBL
WAIANAE VLY*   NOT AVBL
KUAOKALA*      NOT AVBL
HONOULIUULI*   NOT AVBL
MOKUOLOE IS*     N/A    N/A N/A N/A MISG        N/A
PALEHUA*       NOT AVBL
WAIAWA PHB*    NOT AVBL
$$

HIZ012>013-281400-
MOLOKAI-

CITY           SKY/WX    TMP DP  RH WIND       PRES   REMARKS
MOLOKAI AIRPT  CLEAR     75  71  87 CALM      29.88F
KALAUPAPA      NOT AVBL
MAKAPULAPAI*   NOT AVBL
MOLOKAI 1*     NOT AVBL
PUU ALII*      NOT AVBL
$$

HIZ016-281400-
KAHOOLAWE-

CITY           SKY/WX    TMP DP  RH WIND       PRES   REMARKS
KAHOOLAWE*     NOT AVBL
HAKIOAWA*      NOT AVBL
HONOKANAIA*      N/A     79  73  82 NE7G15    29.82S
KANELOA*         N/A     79  75  89 E10G16    29.96S
KEALIALALO*    NOT AVBL
LUA MAKIKA*    NOT AVBL
$$

HIZ014>015-281400-
LANAI-

CITY           SKY/WX    TMP DP  RH WIND       PRES   REMARKS
LANAI CITY     FAIR      73  70  90 E5        29.94F
LANAI 1*       NOT AVBL
$$

HIZ017>028-281400-
MAUI-

CITY           SKY/WX    TMP DP  RH WIND       PRES   REMARKS
KAHULUI        CLEAR     74  70  87 SE6       29.87F
KAPALUA-W MAUI NOT AVBL
HANA AIRPORT   CLEAR     75  73  94 CALM      29.90S
HANA*          NOT AVBL
HALEAKALA SUMM   N/A     50  37  62 N13         N/A
MAALAEA BAY*   NOT AVBL
HALEAKALA*     NOT AVBL
KAUPO GAP*     NOT AVBL
KULA 1*          N/A     56  50  80 E3          N/A
$$

HIZ023>026-281400-
BIG ISLAND OF HAWAII COAST AND LOWER SLOPES-

CITY           SKY/WX    TMP DP  RH WIND       PRES   REMARKS
KAILUA KONA    CLEAR     81  74  79 CALM      29.84F
HILO           PTCLDY    73  68  84 SW7       29.87F
HONOKAA*       NOT AVBL
KAWAIHAE MWT*  NOT AVBL
KAWAIHAE*        N/A     81 N/A N/A N5          N/A
SOUTH POINT*   NOT AVBL
UPOLU AIRPORT* NOT AVBL
KAMUELA*       NOT AVBL
HAKALAU*         N/A     51  49  92 W2          N/A
KALOKO-HONOKO* NOT AVBL
PALI 2*          N/A     64  64 100 NW1         N/A
KEALAKOMO*       N/A     72  61  68 NE6         N/A
KAUPULEHU*     NOT AVBL
KAPAPALA*        N/A     67  67  99 N3          N/A
LOWER KAHUKU*  NOT AVBL
PUHE CS*       NOT AVBL
PUHO CS*       NOT AVBL
PTA KEAMUKU*     N/A     61  55  82 CALM        N/A
WAIKOLOA*      NOT AVBL
$$

HIZ027>028-281400-
BIG ISLAND OF HAWAII INTERIOR AND SUMMMITS-

CITY           SKY/WX    TMP DP  RH WIND       PRES   REMARKS
BRADSHAW FIELD CLOUDY    54  52  94 SE2       30.24F
MK VISITOR CEN   N/A     50  37  62 VRB3        N/A
MAUNA KEA*       N/A     41  21  45 CALM        N/A
MAUNA LOA*       N/A     45  32  61 MISG        N/A
MAUNA LOA 1*   NOT AVBL
PTA KIPUKA*      N/A     55  55 100 E3          N/A
PTA RANGE 17*    N/A     72  66  83 E6          N/A
PTA WEST*        N/A     59  57  94 SE9         N/A
NENE CABIN*    NOT AVBL
AHUMOA*        NOT AVBL
PTA PORTABLE*  NOT AVBL
PUU MALI*        N/A     61  48  63 E10         N/A
$$

HIC003-281400-
NORTHWEST ISLANDS-

CITY           SKY/WX    TMP DP  RH WIND       PRES   REMARKS
MIDWAY ISLAND  LGT RAIN  82  81  94 SW8       29.90F FOG     HX  95
MIDWAY NOS*    NOT AVBL
FRENCH FRIGATE NOT AVBL
$$

PHZ110>124-180-281400-
BUOY REPORTS

STATION/POSITION TIME  TEMP    WIND        PRES    WAVE   SWELL
                       AIR SEA DIR/SP/G            HT/PER HT/DIR
                 (UTC) (F)     (DEG/KT/KT) (MB)    (FT/S) (FT/D)
BUOY 51001       1243   81 83   50/ 12/ 16 1012.5    8/16   8/280
BUOY 51101       1300   81 83   60/ 12/ 14 1012.0F   8/14   8/290
BUOY 51100       NOT AVBL
BUOY 51002       1300   82 83   80/ 14/ 16 1009.7F   5/15   5/310
BUOY 51003       1300   83 84   70/ 10/ 12 1010.8F   5/15   5/230
BUOY 51004       1223   81 83   70/ 10/ 14 1010.4F   5/15   5/170
BARBERS PT BUOY  NOT AVBL
WAIMEA BAY BUOY  1300      83                N/A     3/10   2/280
KAILUA BAY BUOY  1300      83                N/A     3/10   2/360
LANAI BUOY       NOT AVBL
BARBERS PT 2     1300      84                N/A     4/15   3/210
PAUWELA MAUI     1300      83                N/A     4/15   2/320
HILO             NOT AVBL
KANEOHE BAY BUOY 1300      83                N/A     3/ 9   2/350
HANALEI KAUAI    1300      84                N/A     4/20   3/300
KAHULUI HARBOR   1300   78 85   70/  3/  5 1011.2F
HONOLULU HARBOR  1300   80 82   CALM  /  2 1011.5F
KILO NALU        NOT AVBL
HILO HARBOR      1300   74 81  190/  4/  5 1011.3F
MOKUOLOE         1300      86              1011.6S
NAWILIWILI       1300   76 83  250/  7/  8 1011.9F
WHOTS BUOY       NOT AVBL
BUOY 51028       NOT AVBL
$$

......................KEY........................................
  SKY/WX - SKY CONDITIONS/PRESENT WEATHER
  TMP    - TEMPERATURE IN FAHRENHEIT
  DWPT   - DEWPOINT IN FAHRENHEIT
  RH     - RELATIVE HUMIDITY IN PERCENT
  WIND   - DIRECTION AND SPEED /MPH FOR ISLANDS...KTS FOR BUOYS/
  PRES   - MEAN SEA LEVEL PRESSURE IN INCHES OF HG
  VSB    - VISIBILITY IN MILES
  HX     - HEAT INDEX
  WCI    - WIND CHILL INDEX
  VRB    - VARIABLE WIND DIRECTION
  N/A    - NOT AVAILABLE


USA.gov is the U.S. government's official web portal to all federal, state and local government web resources and services.